Weather History for KLWC - June, 2013

Change the Weather History Date:

Wednesday, June 26, 2013

  Actual Average Record
Temperature  
Mean Temperature 84 °F 76 °F  
Max Temperature 99 °F 87 °F - ()
Min Temperature 69 °F 66 °F - ()
Degree Days  
Heating Degree Days 0 0  
Month to date heating degree days 13 6  
Since 1 June heating degree days 13 6  
Since 1 July heating degree days 5283 5090  
Cooling Degree Days 19 11  
Month to date cooling degree days 272 228  
Year to date cooling degree days 399 347  
Since 1 June cooling degree days 272 228  
Growing Degree Days 36 (Base 50)    
Moisture  
Dew Point 69 °F    
Average Humidity 58    
Maximum Humidity 87    
Minimum Humidity 29    
Precipitation  
Precipitation 0.00 in 0.14 in - ()
Month to date precipitation 1.03 4.85  
Year to date precipitation 15.34 18.74  
Sea Level Pressure  
Sea Level Pressure 29.79 in    
Wind  
Wind Speed 7 mph (WNW)    
Max Wind Speed 18 mph    
Max Gust Speed 24 mph    
Visibility 10 miles    
Events      
T = Trace of Precipitation, MM = Missing Value Source: NWS Daily Summary

Daily Weather History Graph

Daily Weather History Graph

Search for Another Location

Airport or City:

Trip Planner

Search our weather history database for the weather conditions in past years. The results will help you decide how hot, cold, wet, or windy it might be!

Date:

Astronomy

Jun. 26, 2013 Rise Set
Actual Time 5:56 AM CDT 8:50 PM CDT
Civil Twilight 5:24 AM CDT 9:22 PM CDT
Nautical Twilight 4:44 AM CDT 10:03 PM CDT
Astronomical Twilight 3:57 AM CDT 10:49 PM CDT
Moon 11:16 PM CDT (6/26) 9:47 AM CDT (6/26)
Length of Visible Light 15h 57m
Length of Day
14h 53m
Waning Gibbous, 85% of the Moon is Illuminated
Jun 26
Waning Gibbous
Jun 29
Last Quarter
Jul 8
New
Jul 15
First Quarter
Jul 22
Full

Hourly Weather History & Observations

Time (CDT) Temp. Heat Index Dew Point Humidity Pressure Visibility Wind Dir Wind Speed Gust Speed Precip Events Conditions
12:52 AM 80.1 °F 83.2 °F 70.0 °F 71% 29.72 in 10.0 mi South 10.4 mph - N/A   Clear
1:52 AM 80.1 °F 83.6 °F 71.1 °F 74% 29.70 in 10.0 mi SSW 16.1 mph 23.0 mph N/A   Clear
2:52 AM 80.1 °F 83.6 °F 71.1 °F 74% 29.70 in 10.0 mi SW 13.8 mph - N/A   Clear
3:52 AM 79.0 °F - 71.1 °F 77% 29.70 in 10.0 mi WSW 5.8 mph - N/A   Clear
4:52 AM 78.1 °F - 70.0 °F 76% 29.72 in 10.0 mi WSW 4.6 mph - N/A   Clear
5:52 AM 75.0 °F - 70.0 °F 84% 29.74 in 10.0 mi West 4.6 mph - N/A   Clear
6:52 AM 75.0 °F - 71.1 °F 87% 29.77 in 8.0 mi Calm Calm - N/A   Clear
7:52 AM 80.1 °F 83.6 °F 71.1 °F 74% 29.79 in 10.0 mi WSW 4.6 mph - N/A   Clear
8:52 AM 82.9 °F 88.8 °F 73.0 °F 72% 29.80 in 9.0 mi West 8.1 mph - N/A   Clear
9:52 AM 88.0 °F 96.5 °F 73.9 °F 63% 29.80 in 8.0 mi West 9.2 mph - N/A   Clear
10:52 AM 88.0 °F 95.6 °F 73.0 °F 61% 29.80 in 10.0 mi WNW 10.4 mph - N/A   Clear
11:52 AM 91.9 °F 100.7 °F 73.0 °F 54% 29.81 in 10.0 mi WNW 9.2 mph - N/A   Clear
12:52 PM 95.0 °F 99.0 °F 66.9 °F 40% 29.81 in 10.0 mi NW 9.2 mph - N/A   Clear
1:52 PM 98.1 °F 101.2 °F 64.9 °F 34% 29.81 in 10.0 mi NNW 11.5 mph - N/A   Clear
2:52 PM 99.0 °F 100.5 °F 63.0 °F 30% 29.81 in 10.0 mi NNW 9.2 mph - N/A   Clear
3:52 PM 98.1 °F 98.1 °F 60.1 °F 28% 29.81 in 10.0 mi NW 12.7 mph - N/A   Clear
4:52 PM 98.1 °F 98.6 °F 61.0 °F 29% 29.80 in 10.0 mi NW 9.2 mph - N/A   Clear
5:52 PM 96.1 °F 99.3 °F 66.0 °F 37% 29.80 in 10.0 mi NNW 5.8 mph - N/A   Clear
6:52 PM 95.0 °F 99.5 °F 68.0 °F 41% 29.81 in 10.0 mi NNW 4.6 mph - N/A   Clear
7:52 PM 91.9 °F 103.2 °F 75.0 °F 58% 29.81 in 10.0 mi Calm Calm - N/A   Clear
8:52 PM 80.1 °F 84.5 °F 73.9 °F 81% 29.83 in 10.0 mi NNE 3.5 mph - N/A   Clear
9:52 PM 73.9 °F - 69.1 °F 85% 29.85 in 10.0 mi North 3.5 mph - N/A   Clear
10:52 PM 73.9 °F - 68.0 °F 82% 29.87 in 10.0 mi Calm Calm - N/A   Clear
11:52 PM 73.0 °F - 69.1 °F 87% 29.87 in 10.0 mi Calm Calm - N/A   Clear